| time (UTC) | temp F | wind direction | speed MPH | gust MPH | rain 1hr in | rain 24hr in | rain mn in | humidity % | barometer mb |
| 20260506191309 | 64 | 110 | 1.0 | 6.0 | 0.00 | 0.02 | 0.02 | 43 | 1011.8 |
| 20260506190805 | 63 | 109 | 1.0 | 4.0 | 0.00 | 0.02 | 0.02 | 42 | 1011.9 |
| 20260506190001 | 63 | 108 | 1.0 | 3.0 | 0.00 | 0.02 | 0.02 | 42 | 1011.9 |
| 20260506185501 | 63 | 108 | 1.0 | 3.0 | 0.00 | 0.02 | 0.02 | 43 | 1012.0 |
| 20260506185002 | 63 | 108 | 0.0 | 3.0 | 0.00 | 0.02 | 0.02 | 43 | 1012.1 |
| 20260506184553 | 63 | 107 | 0.0 | 3.0 | 0.02 | 0.02 | 0.02 | 44 | 1012.2 |
| 20260506183916 | 63 | 115 | 1.0 | 6.0 | 0.02 | 0.02 | 0.02 | 39 | 1012.5 |
| 20260506183911 | 63 | 106 | 2.0 | 4.0 | 0.02 | 0.02 | 0.02 | 40 | 1012.4 |
| 20260506182502 | 63 | 77 | 1.0 | 6.0 | 0.02 | 0.02 | 0.02 | 40 | 1012.4 |
| 20260506182001 | 63 | 156 | 2.0 | 9.0 | 0.02 | 0.02 | 0.02 | 39 | 1012.4 |
| 20260506181502 | 64 | 156 | 2.0 | 9.0 | 0.02 | 0.02 | 0.02 | 40 | 1012.4 |
| 20260506181003 | 64 | 68 | 1.0 | 4.0 | 0.02 | 0.02 | 0.02 | 38 | 1012.5 |
| 20260506180501 | 63 | 68 | 2.0 | 5.0 | 0.02 | 0.02 | 0.02 | 39 | 1012.8 |
| 20260506180001 | 63 | 133 | 1.0 | 8.0 | 0.02 | 0.02 | 0.02 | 38 | 1012.9 |
| 20260506175501 | 63 | 111 | 2.0 | 8.0 | 0.02 | 0.02 | 0.02 | 39 | 1013.0 |
| 20260506175002 | 62 | 66 | 1.0 | 5.0 | 0.02 | 0.02 | 0.02 | 41 | 1013.0 |
| 20260506174502 | 62 | 195 | 1.0 | 3.0 | 0.00 | 0.00 | 0.00 | 42 | 1013.1 |
| 20260506174005 | 62 | 171 | 0.0 | 3.0 | 0.00 | 0.00 | 0.00 | 41 | 1013.3 |
| 20260506173549 | 62 | 152 | 0.0 | 5.0 | 0.00 | 0.00 | 0.00 | 42 | 1013.4 |
| 20260506172808 | 60 | 159 | 0.0 | 2.0 | 0.00 | 0.00 | 0.00 | 42 | 1013.6 |
| 20260506172005 | 60 | 159 | 0.0 | 2.0 | 0.00 | 0.00 | 0.00 | 40 | 1013.6 |
| 20260506171758 | 60 | 159 | 0.0 | 2.0 | 0.00 | 0.00 | 0.00 | 42 | 1013.7 |
| 20260506171008 | 60 | 159 | 0.0 | 2.0 | 0.00 | 0.00 | 0.00 | 42 | 1013.7 |
| 20260506170504 | 59 | 159 | 1.0 | 4.0 | 0.00 | 0.00 | 0.00 | 44 | 1013.7 |
| 20260506170310 | 58 | 159 | 1.0 | 4.0 | 0.00 | 0.00 | 0.00 | 45 | 1013.7 |
| 20260506165507 | 58 | 161 | 0.0 | 4.0 | 0.00 | 0.00 | 0.00 | 45 | 1013.8 |
| 20260506165005 | 57 | 160 | 1.0 | 4.0 | 0.00 | 0.00 | 0.00 | 45 | 1014.0 |
| 20260506164505 | 57 | 161 | 1.0 | 4.0 | 0.00 | 0.00 | 0.00 | 45 | 1014.0 |
| 20260506164005 | 57 | 161 | 0.0 | 4.0 | 0.00 | 0.00 | 0.00 | 45 | 1014.2 |
| 20260506163618 | 57 | 160 | 0.0 | 4.0 | 0.00 | 0.00 | 0.00 | 45 | 1014.3 |
| 20260506163553 | 57 | 161 | 0.0 | 2.0 | 0.00 | 0.00 | 0.00 | 45 | 1014.3 |
| 20260506162502 | 57 | 160 | 0.0 | 4.0 | 0.00 | 0.00 | 0.00 | 45 | 1014.3 |
| 20260506162003 | 57 | 160 | 0.0 | 2.0 | 0.00 | 0.00 | 0.00 | 46 | 1014.5 |
| 20260506161500 | 57 | 160 | 0.0 | 4.0 | 0.00 | 0.00 | 0.00 | 47 | 1014.5 |
| 20260506161002 | 56 | 160 | 1.0 | 4.0 | 0.00 | 0.00 | 0.00 | 45 | 1014.6 |
| 20260506160502 | 56 | 156 | 1.0 | 3.0 | 0.00 | 0.00 | 0.00 | 44 | 1014.5 |
| 20260506160002 | 56 | 155 | 0.0 | 3.0 | 0.00 | 0.00 | 0.00 | 45 | 1014.6 |
| 20260506155502 | 56 | 155 | 1.0 | 4.0 | 0.00 | 0.00 | 0.00 | 46 | 1014.6 |
| 20260506155001 | 56 | 154 | 1.0 | 4.0 | 0.00 | 0.00 | 0.00 | 45 | 1014.5 |
| 20260506154502 | 55 | 200 | 0.0 | 3.0 | 0.00 | 0.00 | 0.00 | 47 | 1014.5 |
| 20260506154002 | 55 | 200 | 0.0 | 4.0 | 0.00 | 0.00 | 0.00 | 49 | 1014.6 |
| 20260506153502 | 54 | 201 | 0.0 | 4.0 | 0.00 | 0.00 | 0.00 | 52 | 1014.7 |
| 20260506153001 | 54 | 199 | 0.0 | 1.0 | 0.00 | 0.00 | 0.00 | 53 | 1014.7 |
| 20260506152501 | 54 | 199 | 0.0 | 2.0 | 0.00 | 0.00 | 0.00 | 53 | 1014.7 |
| 20260506152259 | 53 | 199 | 0.0 | 2.0 | 0.00 | 0.00 | 0.00 | 54 | 1014.7 |
| 20260506151501 | 53 | 198 | 0.0 | 0.0 | 0.00 | 0.00 | 0.00 | 55 | 1014.7 |
| 20260506151302 | 52 | 198 | 0.0 | 0.0 | 0.00 | 0.00 | 0.00 | 55 | 1014.6 |
| 20260506150501 | 51 | 199 | 0.0 | 0.0 | 0.00 | 0.00 | 0.00 | 59 | 1014.6 |
| 20260506150002 | 50 | 199 | 0.0 | 0.0 | 0.00 | 0.00 | 0.00 | 59 | 1014.7 |
| 20260506145500 | 50 | 199 | 0.0 | 2.0 | 0.00 | 0.00 | 0.00 | 60 | 1014.8 |
| 20260506145000 | 49 | 199 | 0.0 | 2.0 | 0.00 | 0.00 | 0.00 | 61 | 1014.8 |
| 20260506144457 | 49 | 198 | 0.0 | 0.0 | 0.00 | 0.00 | 0.00 | 60 | 1014.7 |
| 20260506143957 | 48 | 198 | 0.0 | 0.0 | 0.00 | 0.00 | 0.00 | 59 | 1014.7 |
| 20260506143457 | 48 | 199 | 0.0 | 0.0 | 0.00 | 0.00 | 0.00 | 60 | 1014.8 |
| 20260506142958 | 48 | 199 | 0.0 | 0.0 | 0.00 | 0.00 | 0.00 | 62 | 1014.8 |
| 20260506142458 | 48 | 198 | 0.0 | 0.0 | 0.00 | 0.00 | 0.00 | 61 | 1014.8 |
| 20260506141955 | 47 | 199 | 0.0 | 0.0 | 0.00 | 0.00 | 0.00 | 60 | 1014.8 |
| 20260506141456 | 47 | 198 | 0.0 | 0.0 | 0.00 | 0.00 | 0.00 | 61 | 1014.8 |
| 20260506140955 | 47 | 198 | 0.0 | 1.0 | 0.00 | 0.00 | 0.00 | 60 | 1014.8 |
| 20260506140457 | 47 | 198 | 0.0 | 1.0 | 0.00 | 0.00 | 0.00 | 60 | 1014.8 |
| 20260506135953 | 47 | 199 | 0.0 | 2.0 | 0.00 | 0.00 | 0.00 | 62 | 1014.9 |
| 20260506135453 | 46 | 198 | 0.0 | 2.0 | 0.00 | 0.00 | 0.00 | 62 | 1014.8 |
| 20260506134954 | 46 | 199 | 0.0 | 0.0 | 0.00 | 0.00 | 0.00 | 64 | 1014.8 |
| 20260506134452 | 46 | 199 | 0.0 | 0.0 | 0.00 | 0.00 | 0.00 | 64 | 1014.8 |
| 20260506134248 | 46 | 199 | 0.0 | 1.0 | 0.00 | 0.00 | 0.00 | 64 | 1014.9 |
| 20260506133451 | 46 | 199 | 0.0 | 1.0 | 0.00 | 0.00 | 0.00 | 65 | 1014.8 |
| 20260506133247 | 46 | 199 | 0.0 | 0.0 | 0.00 | 0.00 | 0.00 | 65 | 1014.8 |
| 20260506132457 | 46 | 199 | 0.0 | 0.0 | 0.00 | 0.00 | 0.00 | 65 | 1014.7 |
| 20260506131951 | 46 | 199 | 0.0 | 0.0 | 0.00 | 0.00 | 0.00 | 65 | 1014.8 |
| 20260506131450 | 46 | 199 | 0.0 | 0.0 | 0.00 | 0.00 | 0.00 | 65 | 1014.8 |
| 20260506130946 | 46 | 199 | 0.0 | 0.0 | 0.00 | 0.00 | 0.00 | 65 | 1014.8 |
| 20260506130446 | 46 | 199 | 0.0 | 3.0 | 0.00 | 0.00 | 0.00 | 64 | 1014.8 |
| 20260506125948 | 46 | 199 | 0.0 | 3.0 | 0.00 | 0.00 | 0.00 | 64 | 1014.8 |
| 20260506125446 | 46 | 199 | 0.0 | 3.0 | 0.00 | 0.00 | 0.00 | 65 | 1014.7 |
| 20260506124948 | 46 | 197 | 0.0 | 0.0 | 0.00 | 0.00 | 0.00 | 64 | 1014.8 |
| 20260506124445 | 46 | 197 | 0.0 | 0.0 | 0.00 | 0.00 | 0.00 | 64 | 1014.6 |
| 20260506123946 | 46 | 197 | 0.0 | 0.0 | 0.00 | 0.00 | 0.00 | 63 | 1014.6 |
| 20260506123446 | 46 | 197 | 0.0 | 0.0 | 0.00 | 0.00 | 0.00 | 62 | 1014.6 |
| 20260506122942 | 46 | 197 | 0.0 | 0.0 | 0.00 | 0.00 | 0.00 | 62 | 1014.5 |
| 20260506122444 | 47 | 197 | 0.0 | 0.0 | 0.00 | 0.00 | 0.00 | 62 | 1014.5 |
| 20260506121938 | 47 | 197 | 0.0 | 0.0 | 0.00 | 0.00 | 0.00 | 61 | 1014.6 |
| 20260506121737 | 47 | 197 | 0.0 | 0.0 | 0.00 | 0.00 | 0.00 | 61 | 1014.6 |
| 20260506121237 | 47 | 197 | 0.0 | 1.0 | 0.00 | 0.00 | 0.00 | 61 | 1014.3 |
| 20260506120438 | 47 | 197 | 0.0 | 1.0 | 0.00 | 0.00 | 0.00 | 61 | 1014.3 |
| 20260506120332 | 47 | 197 | 0.0 | 2.0 | 0.00 | 0.00 | 0.00 | 62 | 1014.3 |
| 20260506120327 | 47 | 197 | 0.0 | 0.0 | 0.00 | 0.00 | 0.00 | 61 | 1014.2 |
| 20260506114933 | 47 | 197 | 0.0 | 2.0 | 0.00 | 0.00 | 0.00 | 61 | 1014.3 |
| 20260506114432 | 47 | 197 | 0.0 | 0.0 | 0.00 | 0.00 | 0.00 | 61 | 1014.3 |
| 20260506113931 | 47 | 197 | 0.0 | 0.0 | 0.00 | 0.00 | 0.00 | 61 | 1014.5 |
| 20260506113432 | 47 | 197 | 0.0 | 0.0 | 0.00 | 0.00 | 0.00 | 60 | 1014.5 |
| 20260506112931 | 47 | 197 | 0.0 | 1.0 | 0.00 | 0.00 | 0.00 | 60 | 1014.5 |
| 20260506112430 | 47 | 197 | 0.0 | 1.0 | 0.00 | 0.00 | 0.00 | 61 | 1014.5 |
| 20260506111929 | 47 | 197 | 0.0 | 0.0 | 0.00 | 0.00 | 0.00 | 61 | 1014.5 |
| 20260506111430 | 47 | 197 | 0.0 | 0.0 | 0.00 | 0.00 | 0.00 | 62 | 1014.3 |
| 20260506110928 | 47 | 197 | 0.0 | 0.0 | 0.00 | 0.00 | 0.00 | 62 | 1014.3 |
| 20260506110429 | 47 | 197 | 0.0 | 0.0 | 0.00 | 0.00 | 0.00 | 61 | 1014.3 |
| 20260506105929 | 47 | 197 | 0.0 | 0.0 | 0.00 | 0.00 | 0.00 | 61 | 1014.2 |
| 20260506105724 | 47 | 197 | 0.0 | 0.0 | 0.00 | 0.00 | 0.00 | 62 | 1014.2 |
| 20260506105225 | 47 | 197 | 0.0 | 0.0 | 0.00 | 0.00 | 0.00 | 61 | 1014.2 |
| 20260506104724 | 48 | 197 | 0.0 | 0.0 | 0.00 | 0.00 | 0.00 | 62 | 1014.2 |
| 20260506103930 | 48 | 197 | 0.0 | 0.0 | 0.00 | 0.00 | 0.00 | 61 | 1014.2 |
| 20260506103430 | 48 | 197 | 0.0 | 0.0 | 0.00 | 0.00 | 0.00 | 60 | 1014.3 |
| 20260506102929 | 48 | 197 | 0.0 | 0.0 | 0.00 | 0.00 | 0.00 | 60 | 1014.2 |
| 20260506102429 | 48 | 197 | 0.0 | 0.0 | 0.00 | 0.00 | 0.00 | 60 | 1014.2 |
| 20260506102030 | 49 | 197 | 0.0 | 1.0 | 0.00 | 0.00 | 0.00 | 59 | 1014.2 |
| 20260506102008 | 49 | 197 | 0.0 | 1.0 | 0.00 | 0.00 | 0.00 | 60 | 1014.2 |
| 20260506100929 | 49 | 197 | 0.0 | 1.0 | 0.00 | 0.00 | 0.00 | 59 | 1014.1 |
| 20260506100728 | 49 | 197 | 0.0 | 1.0 | 0.00 | 0.00 | 0.00 | 60 | 1013.9 |
| 20260506095925 | 49 | 197 | 0.0 | 0.0 | 0.00 | 0.00 | 0.00 | 59 | 1014.0 |
| 20260506095424 | 49 | 197 | 0.0 | 0.0 | 0.00 | 0.00 | 0.00 | 59 | 1013.9 |
| 20260506094923 | 49 | 197 | 0.0 | 0.0 | 0.00 | 0.00 | 0.00 | 59 | 1014.1 |
| 20260506094419 | 50 | 197 | 0.0 | 1.0 | 0.00 | 0.00 | 0.00 | 59 | 1014.0 |
| 20260506093916 | 50 | 197 | 0.0 | 1.0 | 0.00 | 0.00 | 0.00 | 58 | 1014.0 |
| 20260506093416 | 50 | 197 | 0.0 | 1.0 | 0.00 | 0.00 | 0.00 | 58 | 1013.9 |
| 20260506092917 | 50 | 197 | 0.0 | 1.0 | 0.00 | 0.00 | 0.00 | 57 | 1013.9 |
| 20260506092415 | 50 | 197 | 0.0 | 0.0 | 0.00 | 0.00 | 0.00 | 57 | 1013.7 |
| 20260506091914 | 51 | 197 | 0.0 | 0.0 | 0.00 | 0.00 | 0.00 | 57 | 1013.7 |
| 20260506091410 | 51 | 197 | 0.0 | 0.0 | 0.00 | 0.00 | 0.00 | 57 | 1013.7 |
| 20260506091208 | 51 | 197 | 0.0 | 0.0 | 0.00 | 0.00 | 0.00 | 57 | 1013.7 |
| 20260506090709 | 51 | 197 | 0.0 | 1.0 | 0.00 | 0.00 | 0.00 | 56 | 1013.8 |
| 20260506085906 | 51 | 197 | 0.0 | 1.0 | 0.00 | 0.00 | 0.00 | 56 | 1013.8 |
| 20260506085408 | 51 | 197 | 0.0 | 1.0 | 0.00 | 0.00 | 0.00 | 57 | 1013.7 |
| 20260506084905 | 51 | 197 | 0.0 | 1.0 | 0.00 | 0.00 | 0.00 | 57 | 1013.7 |
| 20260506084403 | 51 | 197 | 0.0 | 0.0 | 0.00 | 0.00 | 0.00 | 57 | 1013.8 |
| 20260506083907 | 51 | 197 | 0.0 | 1.0 | 0.00 | 0.00 | 0.00 | 57 | 1013.7 |
| 20260506083707 | 51 | 197 | 0.0 | 1.0 | 0.00 | 0.00 | 0.00 | 57 | 1013.8 |
| 20260506082906 | 51 | 197 | 0.0 | 0.0 | 0.00 | 0.00 | 0.00 | 58 | 1013.7 |
| 20260506082404 | 51 | 197 | 0.0 | 0.0 | 0.00 | 0.00 | 0.00 | 57 | 1013.7 |
| 20260506082207 | 51 | 197 | 0.0 | 0.0 | 0.00 | 0.00 | 0.00 | 57 | 1013.6 |
| 20260506081404 | 51 | 197 | 0.0 | 0.0 | 0.00 | 0.00 | 0.00 | 57 | 1013.6 |
| 20260506080905 | 51 | 197 | 0.0 | 0.0 | 0.00 | 0.00 | 0.00 | 57 | 1013.6 |
| 20260506080405 | 52 | 197 | 0.0 | 1.0 | 0.00 | 0.00 | 0.00 | 56 | 1013.6 |
| 20260506073406 | 52 | 197 | 0.0 | 1.0 | 0.00 | 0.00 | 0.00 | 56 | 1013.5 |
| 20260506072903 | 53 | 197 | 0.0 | 1.0 | 0.00 | 0.00 | 0.00 | 56 | 1013.3 |
| 20260506072401 | 53 | 197 | 0.0 | 1.0 | 0.00 | 0.00 | 0.00 | 56 | 1013.3 |
| 20260506071901 | 53 | 197 | 0.0 | 1.0 | 0.00 | 0.00 | 0.00 | 55 | 1013.3 |
| 20260506071402 | 53 | 197 | 0.0 | 0.0 | 0.00 | 0.00 | 0.00 | 55 | 1013.2 |
| 20260506070903 | 53 | 197 | 0.0 | 0.0 | 0.00 | 0.00 | 0.00 | 55 | 1013.1 |
| 20260506070401 | 54 | 197 | 0.0 | 0.0 | 0.00 | 0.00 | 0.00 | 54 | 1013.1 |
| 20260506062401 | 55 | 197 | 0.0 | 1.0 | 0.00 | 0.00 | 0.00 | 51 | 1012.8 |
| 20260506061902 | 55 | 197 | 0.0 | 1.0 | 0.00 | 0.00 | 0.00 | 50 | 1012.8 |
| 20260506061400 | 56 | 197 | 0.0 | 2.0 | 0.00 | 0.00 | 0.00 | 51 | 1012.9 |
| 20260506060905 | 56 | 197 | 0.0 | 2.0 | 0.00 | 0.00 | 0.00 | 49 | 1012.8 |
| 20260506060404 | 56 | 197 | 0.0 | 2.0 | 0.00 | 0.00 | 0.00 | 49 | 1012.8 |
| 20260506051405 | 57 | 197 | 0.0 | 0.0 | 0.00 | 0.00 | 0.00 | 49 | 1012.0 |
| 20260506050905 | 57 | 197 | 0.0 | 1.0 | 0.00 | 0.00 | 0.00 | 49 | 1012.0 |
| 20260506050404 | 58 | 197 | 0.0 | 1.0 | 0.00 | 0.00 | 0.00 | 49 | 1011.9 |
| 20260506044904 | 58 | 197 | 0.0 | 1.0 | 0.00 | 0.00 | 0.00 | 45 | 1011.8 |
| 20260506044711 | 59 | 197 | 0.0 | 0.0 | 0.00 | 0.00 | 0.00 | 45 | 1011.7 |
| 20260506044209 | 59 | 197 | 0.0 | 0.0 | 0.00 | 0.00 | 0.00 | 45 | 1011.5 |
| 20260506043404 | 59 | 197 | 0.0 | 2.0 | 0.00 | 0.00 | 0.00 | 45 | 1011.5 |
| 20260506042905 | 59 | 197 | 0.0 | 2.0 | 0.00 | 0.00 | 0.00 | 44 | 1011.5 |
| 20260506042404 | 60 | 202 | 0.0 | 0.0 | 0.00 | 0.00 | 0.00 | 43 | 1011.4 |
| 20260506041905 | 60 | 202 | 0.0 | 1.0 | 0.00 | 0.00 | 0.00 | 43 | 1011.4 |
| 20260506041405 | 60 | 202 | 0.0 | 1.0 | 0.00 | 0.00 | 0.00 | 42 | 1011.4 |
| 20260506040904 | 61 | 202 | 0.0 | 0.0 | 0.00 | 0.00 | 0.00 | 41 | 1011.3 |
| 20260506040406 | 61 | 202 | 0.0 | 0.0 | 0.00 | 0.00 | 0.00 | 41 | 1011.3 |
| 20260506035906 | 61 | 202 | 0.0 | 1.0 | 0.00 | 0.00 | 0.00 | 40 | 1011.2 |
| 20260506035710 | 61 | 202 | 0.0 | 1.0 | 0.00 | 0.00 | 0.00 | 40 | 1011.2 |
| 20260506034904 | 62 | 202 | 0.0 | 0.0 | 0.00 | 0.00 | 0.00 | 40 | 1011.1 |
| 20260506034653 | 62 | 202 | 0.0 | 0.0 | 0.00 | 0.00 | 0.00 | 40 | 1011.1 |
| 20260506033905 | 63 | 201 | 0.0 | 0.0 | 0.00 | 0.00 | 0.00 | 41 | 1010.9 |
| 20260506033405 | 64 | 201 | 0.0 | 0.0 | 0.00 | 0.00 | 0.00 | 39 | 1010.9 |
| 20260506032905 | 64 | 201 | 0.0 | 0.0 | 0.00 | 0.00 | 0.00 | 39 | 1010.7 |
| 20260506032405 | 65 | 201 | 0.0 | 0.0 | 0.00 | 0.00 | 0.00 | 39 | 1010.6 |
| 20260506031905 | 65 | 201 | 0.0 | 0.0 | 0.00 | 0.00 | 0.00 | 39 | 1010.5 |
| 20260506031403 | 66 | 201 | 0.0 | 0.0 | 0.00 | 0.00 | 0.00 | 38 | 1010.5 |
| 20260506030903 | 67 | 201 | 0.0 | 0.0 | 0.00 | 0.00 | 0.00 | 38 | 1010.5 |
| 20260506030404 | 67 | 201 | 0.0 | 0.0 | 0.00 | 0.00 | 0.00 | 38 | 1010.5 |
| 20260506025904 | 68 | 201 | 0.0 | 0.0 | 0.00 | 0.00 | 0.00 | 37 | 1010.4 |
| 20260506025405 | 69 | 201 | 0.0 | 0.0 | 0.00 | 0.00 | 0.00 | 36 | 1010.3 |
| 20260506024903 | 70 | 201 | 0.0 | 0.0 | 0.00 | 0.00 | 0.00 | 33 | 1010.3 |
| 20260506024406 | 71 | 201 | 0.0 | 0.0 | 0.00 | 0.00 | 0.00 | 32 | 1010.2 |
| 20260506023904 | 71 | 201 | 0.0 | 2.0 | 0.00 | 0.00 | 0.00 | 33 | 1010.2 |
| 20260506023404 | 72 | 201 | 0.0 | 2.0 | 0.00 | 0.00 | 0.00 | 29 | 1010.2 |
| 20260506022905 | 72 | 201 | 0.0 | 2.0 | 0.00 | 0.00 | 0.00 | 26 | 1010.1 |
| 20260506022404 | 72 | 201 | 0.0 | 2.0 | 0.00 | 0.00 | 0.00 | 26 | 1010.1 |
| 20260506021904 | 73 | 201 | 0.0 | 1.0 | 0.00 | 0.00 | 0.00 | 26 | 1010.0 |
| 20260506021656 | 73 | 201 | 0.0 | 1.0 | 0.00 | 0.00 | 0.00 | 27 | 1010.0 |
| 20260506020903 | 73 | 201 | 0.0 | 1.0 | 0.00 | 0.00 | 0.00 | 26 | 1010.0 |
| 20260506020403 | 73 | 201 | 0.0 | 2.0 | 0.00 | 0.00 | 0.00 | 26 | 1010.0 |
| 20260506015907 | 73 | 201 | 0.0 | 2.0 | 0.00 | 0.00 | 0.00 | 26 | 1010.0 |
| 20260506015511 | 73 | 198 | 0.0 | 3.0 | 0.00 | 0.00 | 0.00 | 25 | 1010.1 |
| 20260506015447 | 73 | 199 | 0.0 | 3.0 | 0.00 | 0.00 | 0.00 | 27 | 1010.0 |
| 20260506014404 | 73 | 220 | 0.0 | 3.0 | 0.00 | 0.00 | 0.00 | 26 | 1010.0 |
| 20260506013904 | 73 | 219 | 1.0 | 3.0 | 0.00 | 0.00 | 0.00 | 27 | 1010.0 |
| 20260506013406 | 73 | 219 | 0.0 | 3.0 | 0.00 | 0.00 | 0.00 | 24 | 1010.0 |
| 20260506012905 | 74 | 218 | 1.0 | 3.0 | 0.00 | 0.00 | 0.00 | 25 | 1010.0 |
| 20260506012405 | 74 | 218 | 1.0 | 3.0 | 0.00 | 0.00 | 0.00 | 25 | 1010.0 |
| 20260506011905 | 74 | 218 | 0.0 | 3.0 | 0.00 | 0.00 | 0.00 | 25 | 1010.0 |
| 20260506011403 | 74 | 218 | 1.0 | 4.0 | 0.00 | 0.00 | 0.00 | 25 | 1010.1 |
| 20260506010905 | 74 | 218 | 0.0 | 4.0 | 0.00 | 0.00 | 0.00 | 24 | 1010.1 |
| 20260506010405 | 74 | 213 | 0.0 | 2.0 | 0.00 | 0.00 | 0.00 | 27 | 1010.1 |
| 20260506005905 | 74 | 213 | 0.0 | 4.0 | 0.00 | 0.00 | 0.00 | 25 | 1010.1 |
| 20260506005403 | 74 | 213 | 0.0 | 4.0 | 0.00 | 0.00 | 0.00 | 27 | 1010.1 |
| 20260506004907 | 74 | 212 | 0.0 | 4.0 | 0.00 | 0.00 | 0.00 | 26 | 1010.1 |
| 20260506004407 | 74 | 175 | 0.0 | 3.0 | 0.00 | 0.00 | 0.00 | 27 | 1010.1 |
| 20260506003903 | 74 | 175 | 0.0 | 3.0 | 0.00 | 0.00 | 0.00 | 27 | 1010.1 |
| 20260506003404 | 74 | 175 | 0.0 | 3.0 | 0.00 | 0.00 | 0.00 | 26 | 1010.2 |
| 20260506002904 | 74 | 176 | 0.0 | 3.0 | 0.00 | 0.00 | 0.00 | 26 | 1010.3 |
| 20260506002404 | 74 | 235 | 0.0 | 2.0 | 0.00 | 0.00 | 0.00 | 27 | 1010.3 |
| 20260506001907 | 74 | 235 | 1.0 | 4.0 | 0.00 | 0.00 | 0.00 | 26 | 1010.3 |
| 20260506001405 | 74 | 239 | 1.0 | 4.0 | 0.00 | 0.00 | 0.00 | 26 | 1010.4 |
| 20260506000903 | 74 | 239 | 1.0 | 5.0 | 0.00 | 0.00 | 0.00 | 25 | 1010.5 |
| 20260506000658 | 74 | 235 | 1.0 | 5.0 | 0.00 | 0.00 | 0.00 | 25 | 1010.6 |
| 20260506000208 | 75 | 212 | 1.0 | 4.0 | 0.00 | 0.00 | 0.00 | 25 | 1010.6 |
| 20260505235712 | 75 | 208 | 1.0 | 4.0 | 0.00 | 0.00 | 0.00 | 25 | 1010.7 |
| 20260505234904 | 75 | 255 | 1.0 | 4.0 | 0.00 | 0.00 | 0.00 | 24 | 1010.7 |
| 20260505234702 | 75 | 218 | 0.0 | 3.0 | 0.00 | 0.00 | 0.00 | 24 | 1010.8 |
| 20260505233904 | 75 | 218 | 0.0 | 2.0 | 0.00 | 0.00 | 0.00 | 25 | 1010.8 |
| 20260505233704 | 75 | 217 | 0.0 | 4.0 | 0.00 | 0.00 | 0.00 | 26 | 1010.9 |
| 20260505232902 | 74 | 218 | 1.0 | 4.0 | 0.00 | 0.00 | 0.00 | 25 | 1010.9 |
| 20260505232404 | 74 | 218 | 1.0 | 4.0 | 0.00 | 0.00 | 0.00 | 25 | 1011.1 |
| 20260505231902 | 74 | 204 | 1.0 | 5.0 | 0.00 | 0.00 | 0.00 | 24 | 1011.1 |
| 20260505231400 | 75 | 213 | 1.0 | 5.0 | 0.00 | 0.00 | 0.00 | 24 | 1011.2 |
| 20260505230902 | 75 | 241 | 1.0 | 4.0 | 0.00 | 0.00 | 0.00 | 26 | 1011.2 |
| 20260505230402 | 75 | 283 | 0.0 | 4.0 | 0.00 | 0.00 | 0.00 | 25 | 1011.2 |
| 20260505225904 | 74 | 277 | 1.0 | 4.0 | 0.00 | 0.00 | 0.00 | 26 | 1011.3 |
| 20260505225401 | 74 | 282 | 1.0 | 4.0 | 0.00 | 0.00 | 0.00 | 26 | 1011.4 |
| 20260505224901 | 74 | 199 | 0.0 | 2.0 | 0.00 | 0.00 | 0.00 | 26 | 1011.5 |
| 20260505224401 | 73 | 199 | 1.0 | 4.0 | 0.00 | 0.00 | 0.00 | 24 | 1011.5 |
| 20260505223902 | 73 | 199 | 1.0 | 4.0 | 0.00 | 0.00 | 0.00 | 25 | 1011.7 |
| 20260505223404 | 73 | 204 | 1.0 | 3.0 | 0.00 | 0.00 | 0.00 | 25 | 1011.7 |
| 20260505222902 | 73 | 206 | 1.0 | 6.0 | 0.00 | 0.00 | 0.00 | 24 | 1011.8 |
| 20260505222401 | 73 | 167 | 1.0 | 6.0 | 0.00 | 0.00 | 0.00 | 24 | 1011.9 |
| 20260505221900 | 73 | 221 | 0.0 | 4.0 | 0.00 | 0.00 | 0.00 | 26 | 1011.9 |
| 20260505221402 | 72 | 136 | 1.0 | 4.0 | 0.00 | 0.00 | 0.00 | 26 | 1011.9 |
| 20260505220902 | 72 | 136 | 1.0 | 4.0 | 0.00 | 0.00 | 0.00 | 26 | 1012.0 |
| 20260505220704 | 72 | 132 | 1.0 | 6.0 | 0.00 | 0.00 | 0.00 | 27 | 1012.1 |
| 20260505215900 | 72 | 130 | 1.0 | 6.0 | 0.00 | 0.00 | 0.00 | 27 | 1012.1 |
| 20260505215706 | 72 | 180 | 1.0 | 10.0 | 0.00 | 0.00 | 0.00 | 25 | 1012.3 |
| 20260505214901 | 72 | 256 | 1.0 | 10.0 | 0.00 | 0.00 | 0.00 | 27 | 1012.3 |
| 20260505214402 | 72 | 247 | 1.0 | 5.0 | 0.00 | 0.00 | 0.00 | 27 | 1012.5 |
| 20260505213900 | 72 | 249 | 1.0 | 5.0 | 0.00 | 0.00 | 0.00 | 26 | 1012.6 |
| 20260505213401 | 71 | 169 | 0.0 | 4.0 | 0.00 | 0.00 | 0.00 | 27 | 1012.8 |
| 20260505212902 | 71 | 177 | 1.0 | 4.0 | 0.00 | 0.00 | 0.00 | 27 | 1012.9 |
| 20260505212403 | 71 | 139 | 1.0 | 5.0 | 0.00 | 0.00 | 0.00 | 27 | 1012.9 |
| 20260505211901 | 71 | 152 | 2.0 | 5.0 | 0.00 | 0.00 | 0.00 | 26 | 1012.9 |
| 20260505211401 | 71 | 65 | 2.0 | 7.0 | 0.00 | 0.00 | 0.00 | 28 | 1013.0 |
| 20260505210900 | 71 | 63 | 2.0 | 7.0 | 0.00 | 0.00 | 0.00 | 26 | 1013.0 |
| 20260505210715 | 71 | 133 | 1.0 | 4.0 | 0.00 | 0.00 | 0.00 | 27 | 1013.0 |
| 20260505205905 | 71 | 194 | 1.0 | 4.0 | 0.00 | 0.00 | 0.00 | 29 | 1013.0 |
| 20260505205658 | 71 | 224 | 1.0 | 5.0 | 0.00 | 0.00 | 0.00 | 29 | 1013.0 |
| 20260505204903 | 70 | 248 | 1.0 | 5.0 | 0.00 | 0.00 | 0.00 | 27 | 1013.2 |
| 20260505204406 | 70 | 156 | 1.0 | 3.0 | 0.00 | 0.00 | 0.00 | 27 | 1013.3 |
| 20260505203903 | 70 | 156 | 1.0 | 6.0 | 0.00 | 0.00 | 0.00 | 28 | 1013.3 |
| 20260505203407 | 70 | 154 | 1.0 | 6.0 | 0.00 | 0.00 | 0.00 | 29 | 1013.3 |
| 20260505202904 | 70 | 137 | 1.0 | 4.0 | 0.00 | 0.00 | 0.00 | 28 | 1013.3 |
| 20260505202402 | 70 | 132 | 1.0 | 4.0 | 0.00 | 0.00 | 0.00 | 28 | 1013.4 |
| 20260505201902 | 69 | 132 | 1.0 | 6.0 | 0.00 | 0.00 | 0.00 | 28 | 1013.5 |
| 20260505201402 | 69 | 163 | 1.0 | 6.0 | 0.00 | 0.00 | 0.00 | 29 | 1013.6 |
| 20260505201201 | 68 | 54 | 2.0 | 9.0 | 0.00 | 0.00 | 0.00 | 28 | 1013.7 |
| 20260505200518 | 69 | 39 | 1.0 | 5.0 | 0.00 | 0.00 | 0.00 | 30 | 1013.7 |
| 20260505200453 | 69 | 48 | 2.0 | 9.0 | 0.00 | 0.00 | 0.00 | 27 | 1013.8 |
| 20260505195404 | 69 | 154 | 1.0 | 5.0 | 0.00 | 0.00 | 0.00 | 30 | 1013.8 |
| 20260505194902 | 68 | 136 | 1.0 | 6.0 | 0.00 | 0.00 | 0.00 | 29 | 1014.0 |
| 20260505194702 | 68 | 137 | 2.0 | 7.0 | 0.00 | 0.00 | 0.00 | 31 | 1014.0 |
| 20260505193901 | 67 | 138 | 2.0 | 10.0 | 0.00 | 0.00 | 0.00 | 30 | 1013.9 |
| 20260505193405 | 67 | 271 | 1.0 | 10.0 | 0.00 | 0.00 | 0.00 | 32 | 1014.0 |
| 20260505192906 | 67 | 144 | 1.0 | 5.0 | 0.00 | 0.00 | 0.00 | 31 | 1014.1 |
| 20260505192458 | 67 | 251 | 1.0 | 6.0 | 0.00 | 0.00 | 0.00 | 31 | 1014.2 |
| 20260505192442 | 67 | 148 | 1.0 | 6.0 | 0.00 | 0.00 | 0.00 | 31 | 1014.1 |
| 20260505191405 | 67 | 125 | 1.0 | 4.0 | 0.00 | 0.00 | 0.00 | 30 | 1014.2 |